GFSMA_850_thetae_096.txt.gz
Theta_e
338 337 335 335 335 339 339 340 341 339 339 339 340 343 342 341 343 341 335 331 326 327 327 328 328 327 326 324 323 322 323 323 324 324 325 326 326 326 326 326 326 325 324
338 336 339 338 337 338 340 341 343 341 341 341 341 340 340 338 343 344 343 345 335 324 324 324 324 324 323 322 323 324 325 327 330 333 335 336 337 338 339 338 338 336 334
343 342 342 342 338 341 339 342 342 341 341 342 342 341 339 340 338 342 343 343 345 325 324 323 322 322 322 324 326 329 334 339 341 342 342 342 342 342 342 342 342 342 341
343 341 342 340 340 342 341 343 344 344 340 342 343 343 343 340 341 343 341 341 340 336 331 330 325 324 325 328 332 339 341 342 342 342 341 341 341 341 341 342 343 344 344
345 344 343 342 340 341 344 343 344 343 343 344 344 343 344 342 342 340 341 340 341 339 337 340 334 328 329 334 339 340 341 341 341 341 341 342 343 343 345 346 347 347 346
344 345 343 343 345 343 343 343 343 345 344 344 344 343 343 343 344 343 344 345 345 342 341 337 335 331 332 337 340 340 341 341 341 341 341 340 340 343 345 346 346 344 343
342 345 342 345 346 345 345 343 343 344 342 341 344 342 343 342 343 343 344 344 345 344 344 340 333 331 331 338 339 344 345 341 341 343 339 337 334 334 336 338 341 342 342
342 343 340 343 346 344 343 342 345 341 341 342 344 343 341 341 341 342 343 344 343 344 344 340 338 339 337 344 345 346 343 342 345 346 343 344 341 339 335 341 346 347 348
344 346 342 343 344 343 342 342 345 344 339 343 344 345 346 343 341 341 340 341 342 342 343 342 343 345 346 346 348 347 348 346 348 347 344 345 345 341 345 350 349 351 352
344 343 346 344 344 342 341 343 344 343 340 342 343 343 344 346 344 340 341 341 340 342 342 342 343 345 347 348 349 349 348 347 347 345 343 346 346 344 349 349 348 350 351
346 344 341 341 345 343 338 342 344 345 342 341 342 343 345 347 348 348 341 340 341 342 341 343 344 345 347 348 348 350 347 346 344 342 340 346 347 346 347 354 347 347 349
346 347 343 345 344 345 342 342 344 343 343 344 345 345 344 346 346 345 345 341 341 342 343 344 345 345 347 349 346 347 347 347 343 338 334 346 347 346 344 350 356 347 346
345 345 346 346 342 344 343 344 345 340 343 344 344 345 345 347 346 344 344 344 344 344 344 345 345 345 347 348 347 348 349 345 341 343 344 346 347 346 345 345 348 354 350
347 343 345 343 341 340 345 343 340 337 340 342 341 343 344 345 347 346 345 342 342 345 346 346 347 346 347 347 349 349 345 344 343 341 347 346 348 348 346 344 345 350 355
348 345 348 349 344 341 342 341 342 339 334 338 336 335 340 342 346 344 348 344 345 345 344 344 344 344 345 346 346 344 342 338 348 350 350 350 348 347 346 344 343 346 356
348 348 349 350 341 346 346 342 342 339 336 336 336 335 334 341 343 345 346 347 345 345 345 345 344 344 343 342 339 338 341 347 350 347 347 346 345 346 345 344 342 346 353
348 348 347 346 344 341 346 348 346 342 341 338 337 337 335 336 340 343 343 345 346 344 344 344 345 345 345 338 346 347 346 347 349 349 345 344 346 345 345 344 343 348 352
348 346 347 345 344 343 344 346 344 341 347 350 347 337 336 335 339 338 339 339 345 344 344 343 345 346 345 344 349 350 350 350 350 350 348 345 341 342 343 342 347 347 351
349 349 348 347 347 341 348 347 348 350 344 344 348 345 339 338 338 339 337 337 335 339 342 337 337 341 343 341 346 350 348 345 344 343 339 326 324 327 331 339 347 348 348
344 342 344 344 340 344 344 347 346 347 348 348 346 344 345 344 344 345 347 346 346 344 338 339 340 340 339 340 349 351 347 331 330 328 327 327 330 343 346 346 345 347 348
345 345 345 344 343 341 341 345 348 348 346 347 348 348 346 347 349 348 348 349 350 350 350 349 338 340 342 339 334 332 335 333 332 331 331 328 329 337 342 342 343 345 347
349 349 350 349 351 347 346 344 345 347 347 348 350 350 349 348 348 347 346 350 351 348 350 350 348 347 344 343 342 342 340 342 345 338 339 327 329 328 334 341 346 343 342
345 347 348 349 351 350 349 349 347 345 347 350 351 349 348 348 347 349 348 346 346 347 346 350 352 352 350 345 346 340 342 343 343 339 340 328 337 339 330 336 344 345 343
344 348 348 348 348 350 350 351 352 349 348 349 350 350 348 347 348 349 346 343 342 345 346 348 350 349 346 343 343 344 343 340 337 331 334 329 332 341 342 332 340 343 343
343 344 346 349 349 348 349 349 350 351 349 349 348 347 348 349 348 346 344 343 342 342 342 341 341 341 341 343 346 345 345 347 345 334 335 334 328 336 341 344 344 338 341
337 341 342 343 343 344 346 348 347 348 349 350 351 350 350 350 349 349 350 350 349 346 346 345 344 345 347 346 346 348 348 347 344 342 342 344 340 340 342 344 347 346 345

GFSMA_850_thetae_102.txt.gz
Theta_e
339 338 336 336 337 339 341 340 339 339 339 341 340 338 341 341 342 342 335 325 325 326 326 326 325 324 323 324 325 328 333 337 339 340 341 341 341 341 341 341 341 341 341
337 338 337 335 337 340 340 340 339 340 338 340 340 340 341 341 343 343 343 331 325 324 323 323 323 323 325 329 335 339 340 341 340 340 340 340 340 341 341 341 341 342 343
338 338 338 336 338 339 340 341 341 340 340 341 342 340 340 340 342 342 342 336 330 326 324 324 325 327 333 338 340 340 340 340 340 340 341 341 341 342 343 345 345 345 346
341 341 339 337 339 339 341 341 341 340 342 342 342 343 343 342 342 340 341 339 338 340 335 328 328 333 338 339 340 341 342 342 342 344 341 339 338 338 338 340 342 343 343
341 340 339 341 341 340 342 342 342 339 341 343 343 343 343 343 342 340 340 341 338 338 337 334 333 336 338 341 343 343 343 343 346 347 345 345 345 344 346 348 345 344 345
343 343 340 340 341 341 342 342 343 344 344 343 343 343 342 342 342 343 344 343 342 340 339 335 333 335 338 343 346 346 345 347 348 349 347 348 348 347 346 351 349 350 350
343 342 341 341 341 342 342 342 343 343 342 341 341 340 339 340 341 342 343 344 343 342 339 335 333 333 342 345 347 347 347 348 347 347 347 347 349 349 349 352 348 348 349
342 342 341 343 343 343 341 341 343 341 341 341 343 342 341 341 341 341 341 342 341 341 342 343 344 344 347 348 348 348 347 347 345 345 345 344 346 348 348 348 354 348 347
341 342 342 341 344 343 343 342 343 343 339 342 343 343 345 344 340 339 339 340 340 341 342 343 344 346 347 347 347 348 348 348 343 346 346 340 345 347 346 345 347 353 352
342 343 344 341 343 343 341 340 344 343 340 341 343 343 345 346 346 340 339 339 338 340 342 342 343 344 345 346 347 347 347 345 343 345 344 347 348 347 346 345 344 345 353
346 343 343 343 343 341 340 341 343 342 342 342 344 345 345 345 344 344 341 340 340 342 343 343 343 344 345 346 347 346 348 345 342 347 345 347 346 346 346 345 345 344 345
343 342 343 343 343 343 341 337 338 341 342 343 344 346 347 345 345 343 343 342 341 341 342 343 344 344 345 346 347 347 347 343 339 347 348 346 346 347 345 344 343 341 344
342 344 341 342 342 343 344 341 341 339 342 343 343 343 343 346 344 345 343 343 344 343 344 345 344 345 346 347 347 344 342 340 337 345 347 345 345 343 344 344 344 339 345
344 344 343 344 344 341 344 343 340 339 340 340 341 342 341 340 344 344 345 343 342 343 344 345 344 344 343 343 342 341 340 341 341 347 349 346 347 347 344 342 344 340 346
345 345 343 345 343 341 340 343 343 343 342 338 339 342 340 338 337 342 344 345 345 344 343 344 343 343 343 343 344 343 346 347 347 348 348 349 347 342 327 328 332 338 347
346 346 344 345 346 348 343 340 341 340 339 339 337 337 338 337 335 335 340 343 343 343 344 344 343 342 341 342 343 343 347 347 347 347 347 346 339 327 327 331 334 340 347
347 345 346 347 348 348 345 342 344 342 341 340 338 337 336 340 338 335 336 340 341 340 340 342 342 341 339 339 340 337 338 344 347 348 346 337 328 329 339 344 344 345 344
345 345 345 347 346 345 346 343 344 343 343 342 342 345 343 341 338 341 342 342 341 340 338 338 338 338 337 334 336 337 337 339 345 343 331 327 331 331 331 341 344 343 341
345 345 345 346 346 345 344 343 343 345 343 342 341 344 346 346 343 342 343 342 345 345 345 346 346 345 342 340 338 336 336 334 331 330 331 334 333 329 337 333 334 341 342
342 346 343 345 347 348 347 346 343 343 347 346 343 344 345 345 345 346 347 347 347 345 347 349 349 349 346 345 347 347 343 339 335 332 331 329 329 327 332 339 333 337 343
342 341 342 343 349 348 349 348 344 343 343 346 344 344 344 345 345 347 346 344 345 344 346 347 348 347 345 344 346 350 350 344 335 331 327 326 325 326 328 339 330 331 342
342 343 343 342 341 342 344 347 347 346 344 343 343 343 344 344 347 348 348 348 349 350 347 349 348 346 345 344 346 346 345 342 339 330 335 326 330 330 332 337 341 335 338
340 341 342 343 345 344 344 345 345 344 343 343 344 343 343 345 346 345 346 345 346 346 348 349 346 344 343 342 344 342 342 342 342 342 343 338 335 336 338 334 336 343 341
339 339 338 338 341 342 343 343 343 343 344 345 345 345 345 344 344 344 344 345 347 346 346 346 345 343 343 343 344 345 345 344 343 345 346 345 342 342 344 343 339 338 343
338 339 337 338 339 340 340 341 342 343 344 344 346 346 345 346 346 345 346 347 346 345 346 348 348 348 348 347 348 348 347 348 348 347 347 349 346 347 347 346 345 342 343
335 336 337 338 339 339 339 340 341 342 343 344 345 345 346 347 348 347 347 348 349 349 348 348 348 348 349 348 349 349 349 349 350 350 348 350 349 349 349 348 348 348 346

GFSMA_850_thetae_105.txt.gz
Theta_e
339 336 336 336 338 340 340 338 339 339 340 339 338 341 340 342 343 342 331 326 325 325 325 324 323 324 327 333 337 340 340 340 340 340 340 340 341 341 341 342 342 342 342
339 337 336 335 339 340 339 339 340 340 340 339 340 339 340 341 342 342 336 327 325 323 323 324 326 332 337 339 340 340 340 340 341 341 340 339 339 340 340 342 344 345 345
337 337 336 335 339 339 340 340 340 339 341 342 341 340 340 341 341 340 337 335 333 328 326 327 333 338 339 340 341 342 342 344 345 345 344 343 343 344 346 344 341 340 341
340 338 337 338 339 340 341 341 340 341 342 342 343 343 343 342 340 338 335 336 338 336 331 331 336 338 340 342 343 343 344 345 346 347 347 346 347 347 348 350 349 348 348
341 339 338 340 339 341 341 340 339 341 342 343 342 342 342 342 340 339 337 335 336 336 332 334 336 339 342 345 345 346 347 347 348 348 347 348 349 349 350 351 348 348 349
343 340 340 341 341 342 343 341 341 342 343 342 341 341 341 342 343 343 343 340 340 338 334 332 334 338 345 347 347 346 347 347 347 347 347 347 347 348 349 350 352 348 346
342 342 341 341 342 341 342 342 343 342 341 342 342 343 340 341 342 343 343 343 343 341 337 332 333 343 346 347 347 347 347 347 345 346 346 343 344 347 347 346 347 353 350
343 343 341 344 343 342 341 342 342 341 340 342 342 341 345 342 341 341 341 341 341 342 343 343 344 346 347 347 348 348 347 346 343 344 346 341 346 347 347 346 344 345 353
341 343 341 344 344 342 341 342 342 341 341 342 343 345 347 345 340 338 339 340 340 342 343 343 344 344 345 347 346 346 348 345 343 343 345 347 346 346 347 347 345 344 345
340 342 341 340 344 343 341 340 343 342 341 342 343 345 346 346 349 344 339 339 338 341 341 342 342 343 345 346 347 346 347 346 341 340 347 346 343 346 347 346 345 342 343
342 344 344 341 343 342 341 341 343 342 342 343 345 345 345 344 344 344 345 345 341 342 343 344 344 344 345 346 346 346 346 343 340 338 347 346 346 344 343 344 344 342 341
343 343 344 343 342 342 342 339 341 341 342 343 345 347 345 347 345 346 346 342 341 342 342 343 343 344 345 346 346 345 342 341 341 340 348 346 345 346 346 341 344 344 340
343 341 341 343 343 342 343 340 339 341 341 342 343 343 344 345 344 344 344 344 344 344 345 344 345 345 345 344 343 342 341 342 346 346 348 348 348 347 340 327 334 336 340
344 343 343 342 344 344 343 343 341 341 341 341 341 342 341 341 342 344 343 345 347 347 343 344 344 343 343 342 342 343 344 347 348 348 348 348 346 342 328 328 330 332 344
346 345 343 343 344 344 342 343 343 341 341 342 339 341 342 339 338 339 342 344 344 347 347 346 345 344 343 341 341 340 340 341 347 348 347 346 340 328 330 341 341 344 346
345 345 344 345 346 346 344 341 341 341 339 340 338 337 338 339 338 336 335 339 342 345 345 347 346 342 342 341 341 336 333 335 338 345 348 342 328 331 331 333 340 343 343
345 346 346 346 346 346 346 342 342 342 341 340 339 336 336 335 336 339 338 338 340 342 346 345 342 339 337 338 334 336 341 342 344 339 339 329 331 332 329 334 333 337 341
347 347 346 346 346 347 346 344 342 343 342 342 341 340 343 344 343 339 338 341 342 342 342 348 346 345 341 340 338 339 338 343 339 338 330 332 333 332 330 334 337 333 339
340 345 344 345 345 344 344 344 342 342 341 340 341 341 342 345 344 344 343 344 343 344 346 346 348 350 346 346 346 346 342 340 341 338 333 329 327 327 328 330 336 332 338
340 341 346 345 346 346 347 346 346 344 343 344 344 342 343 342 344 343 343 342 343 344 345 345 351 351 351 349 345 348 350 350 341 332 333 329 326 326 328 328 337 330 336
340 341 341 343 341 342 346 347 346 345 343 343 342 343 343 342 343 345 345 344 343 342 344 348 349 349 350 349 349 349 350 348 344 343 331 342 345 342 345 334 340 340 335
341 342 342 341 342 342 343 341 344 345 344 343 343 342 342 342 343 343 346 348 348 346 345 346 349 351 351 350 349 349 349 348 347 345 346 343 348 349 347 347 339 338 343
339 340 341 342 343 343 343 343 342 344 344 343 343 343 343 344 343 344 345 345 346 346 346 345 343 344 346 349 348 344 350 348 349 345 344 347 348 350 349 348 345 341 340
336 338 339 338 339 340 342 342 342 343 344 344 344 344 345 345 345 344 345 345 344 344 343 345 346 346 346 347 347 348 348 348 348 350 351 350 350 350 350 344 345 346 343
337 337 338 338 338 339 339 340 341 342 342 343 344 344 345 346 345 345 345 346 346 346 347 347 348 347 347 347 348 349 349 351 352 351 351 352 351 351 351 349 346 345 347
334 337 338 338 338 338 338 338 338 340 340 341 341 342 342 342 343 344 343 344 345 345 346 346 348 348 348 348 348 348 348 349 350 352 351 352 352 352 351 350 352 352 351

GFSMA_850_thetae_108.txt.gz
Theta_e
345 344 341 344 343 344 345 346 346 346 345 345 344 344 343 343 342 339 335 324 324 323 323 325 331 337 339 339 340 340 340 341 342 341 341 340 340 340 340 339 340 343 345
345 343 340 343 343 344 345 346 348 344 343 343 344 344 344 343 342 342 339 329 323 324 328 334 338 339 340 340 341 343 344 345 346 345 346 346 346 347 348 349 349 345 342
338 341 343 343 345 340 340 346 345 345 342 341 344 344 344 344 342 343 342 341 331 328 334 337 338 339 341 342 343 344 345 346 347 347 348 348 348 349 350 350 348 348 349
337 341 344 346 343 345 347 345 343 343 343 343 345 344 344 343 343 344 343 343 343 343 337 337 338 341 343 345 345 346 347 347 347 347 347 347 348 348 350 352 351 347 346
340 346 346 344 342 347 346 345 345 345 344 344 343 343 343 343 344 342 344 345 342 345 345 337 339 344 346 346 346 347 347 346 345 346 345 344 345 346 345 346 350 353 349
340 346 347 345 346 347 346 346 348 346 346 345 343 343 343 344 345 345 344 343 343 344 345 337 346 348 347 347 347 347 347 344 343 344 345 341 343 346 345 345 344 345 353
342 340 348 346 348 347 349 350 347 344 344 346 346 342 342 344 345 344 344 345 344 344 344 344 348 350 350 348 348 347 347 344 343 342 346 345 347 346 346 346 346 344 345
342 344 347 347 350 347 345 345 343 343 345 346 347 345 342 341 342 342 343 344 345 345 346 347 349 347 349 350 348 346 347 346 342 339 345 346 344 346 346 346 345 345 342
343 342 341 348 343 347 347 345 346 344 345 348 346 350 343 343 342 341 343 342 346 346 347 348 347 347 345 349 349 348 346 346 341 339 343 346 347 346 344 344 343 344 340
342 344 343 343 344 349 347 346 347 347 349 348 351 350 348 348 345 342 341 342 343 343 346 346 345 348 345 350 350 349 346 343 341 340 343 345 345 345 347 345 339 342 344
342 346 342 340 343 348 343 343 344 346 348 350 350 352 351 351 346 344 343 343 342 345 348 348 348 349 351 352 350 348 342 340 341 342 345 348 348 348 346 337 325 332 339
349 345 347 342 342 346 342 345 342 341 347 348 351 352 350 350 349 347 345 346 345 348 348 349 350 350 351 350 350 342 340 341 345 347 348 348 347 345 337 327 329 328 331
348 348 346 341 346 342 342 347 340 347 343 350 345 349 350 350 350 350 348 347 346 347 348 349 350 350 349 349 349 343 346 345 345 347 346 346 344 336 328 331 338 338 344
348 350 348 342 342 342 343 343 347 348 347 346 345 346 349 349 349 350 349 348 347 348 348 346 348 349 349 348 347 344 343 345 339 339 346 348 343 329 330 328 335 342 343
350 350 350 350 348 342 342 344 348 343 347 346 349 342 347 349 349 349 349 348 348 345 345 349 348 348 348 345 344 346 345 345 335 338 340 343 333 331 331 328 333 334 341
348 348 345 349 349 348 346 340 347 345 342 348 348 350 342 347 348 349 348 348 348 347 346 345 346 349 349 345 344 346 346 345 345 344 337 333 331 334 332 327 331 336 335
345 343 345 346 347 349 345 344 347 350 350 350 349 350 347 344 345 346 346 346 346 346 346 344 345 345 350 351 350 349 348 347 346 345 340 333 331 329 329 327 327 333 333
344 345 345 344 346 350 350 346 350 350 351 351 351 350 350 347 349 347 346 347 346 348 346 346 346 346 349 351 351 352 350 347 347 347 340 339 331 327 327 328 327 332 332
345 347 345 348 346 351 348 344 349 350 351 350 349 350 350 350 352 349 351 349 347 348 348 348 348 347 347 349 349 349 349 349 346 344 342 341 340 339 336 334 331 336 330
345 347 344 345 346 351 347 350 348 344 347 350 350 350 350 350 351 351 350 351 350 350 348 349 347 347 346 347 349 346 346 346 346 345 343 345 345 346 347 346 338 339 339
342 347 347 342 344 345 348 347 347 350 351 350 350 350 350 350 345 344 346 347 345 349 349 348 347 346 347 351 347 347 346 345 345 345 345 347 345 346 347 347 348 342 336
341 344 348 349 349 349 340 341 343 344 351 352 351 351 350 348 347 343 343 345 346 347 348 350 347 347 349 350 347 347 349 349 350 349 351 350 349 348 348 347 347 345 342
341 341 345 349 342 342 341 341 341 343 349 350 349 350 349 347 343 343 343 342 344 345 344 345 346 351 348 349 350 352 353 352 352 352 353 351 350 349 349 348 350 348 346
339 342 341 340 340 341 341 343 343 345 346 344 344 343 343 344 343 344 345 346 350 351 351 350 349 349 349 348 347 348 349 350 353 353 351 351 349 349 349 349 351 351 349
337 338 338 339 339 339 340 341 342 342 342 343 342 342 342 343 343 344 344 344 344 345 349 346 347 347 347 348 348 348 350 351 351 352 353 352 352 351 351 351 351 352 353
337 337 338 338 338 338 338 339 339 335 339 336 338 338 338 337 337 336 337 338 339 340 342 342 343 344 346 347 345 346 347 349 348 349 351 351 352 351 353 351 352 352 353

GFSMA_850_thetae_111.txt.gz
Theta_e
343 345 345 345 345 346 345 345 345 345 344 344 342 343 341 342 340 336 326 323 323 326 331 337 339 339 339 341 343 344 345 345 345 346 346 346 347 348 349 349 349 349 347
346 345 346 344 345 345 346 346 349 344 343 341 344 343 343 342 343 341 337 324 327 333 337 338 339 340 341 343 344 345 346 346 346 347 347 348 348 349 350 351 349 348 348
348 345 344 345 346 343 345 344 344 343 341 340 343 344 343 343 342 345 342 341 335 336 337 338 340 341 343 345 346 346 346 346 346 345 344 345 346 346 347 348 352 352 347
347 346 345 346 345 348 345 343 343 341 341 341 343 344 343 342 343 345 344 344 345 343 337 338 341 344 345 346 346 345 345 345 344 345 345 341 342 345 346 346 345 346 353
342 347 345 347 346 343 344 342 343 344 341 341 343 344 344 342 345 344 345 345 344 347 346 339 345 346 345 346 346 346 345 345 344 342 346 341 344 346 346 347 347 345 344
348 349 347 346 348 347 342 349 347 344 344 344 344 343 344 345 345 345 344 344 345 347 346 347 349 350 347 346 347 347 346 345 343 340 346 344 344 345 345 347 347 346 345
347 345 348 345 351 347 348 345 344 344 345 342 346 343 344 345 346 345 345 345 342 345 344 344 351 351 352 351 350 346 346 346 342 340 344 347 344 345 345 343 343 344 345
350 348 350 349 348 345 345 351 347 344 344 347 349 343 342 343 343 343 344 344 345 345 346 349 350 351 350 351 350 350 348 346 342 341 342 345 345 345 345 347 344 338 344
350 349 345 349 347 349 347 347 342 347 347 346 347 353 346 344 343 343 344 344 346 347 347 348 348 348 350 352 351 351 347 342 340 341 341 347 347 347 347 343 332 326 340
350 349 350 349 344 349 349 343 346 345 352 346 346 349 342 351 352 342 342 343 344 345 346 347 346 349 351 351 353 351 343 340 339 343 345 347 348 346 342 329 329 330 331
351 350 348 347 344 350 346 354 346 351 349 351 350 348 345 346 342 347 344 344 342 345 348 348 347 348 352 353 351 350 343 344 344 345 347 346 345 345 331 328 334 337 337
350 351 350 352 351 353 349 350 352 345 353 348 351 350 349 350 348 347 345 342 346 347 347 348 349 350 350 350 351 350 346 345 346 342 342 347 347 341 328 328 329 337 344
348 349 351 351 350 345 354 352 344 352 350 354 349 352 348 349 348 349 348 348 345 347 348 346 349 349 350 349 349 347 344 344 343 344 336 339 343 333 330 330 328 335 335
347 351 350 352 351 352 351 352 350 349 350 349 352 348 353 348 348 348 348 347 347 348 349 349 349 348 350 349 345 343 344 344 345 342 341 336 335 330 332 331 327 333 334
348 352 349 349 351 351 352 351 348 349 355 349 351 349 342 349 347 348 348 348 347 345 345 351 347 349 350 350 347 349 347 346 345 346 344 334 330 330 329 329 326 328 331
352 351 351 351 350 353 353 350 351 350 350 350 349 350 351 348 350 347 347 347 347 347 346 345 345 346 349 349 348 348 350 350 348 346 342 344 335 331 329 327 327 328 329
347 349 351 352 352 351 352 347 350 351 352 351 348 351 351 350 349 346 347 346 345 345 345 346 346 344 345 349 349 351 349 349 346 346 348 341 341 339 341 340 335 330 331
351 351 353 350 352 353 351 352 352 350 352 351 351 350 350 347 351 348 346 345 345 345 346 345 346 350 347 349 347 349 349 348 346 349 344 343 342 342 345 346 345 333 337
352 352 351 353 353 354 355 352 352 352 353 350 350 351 350 351 352 350 350 350 349 351 351 350 349 346 348 349 349 349 348 347 346 344 344 343 346 346 345 348 347 344 337
352 352 353 352 352 351 353 353 352 353 352 351 350 350 350 351 351 353 352 352 349 351 350 349 349 347 347 348 352 347 346 345 346 347 346 346 346 347 346 347 348 348 346
350 350 351 350 352 351 353 352 352 353 352 351 351 352 351 352 349 347 346 349 350 349 351 350 348 347 346 351 346 348 347 348 349 349 351 351 349 349 348 348 348 349 349
350 350 350 350 351 350 345 345 344 351 352 352 351 352 349 350 346 343 340 340 341 343 344 347 351 349 347 350 351 352 353 353 352 352 353 353 352 349 348 348 348 350 348
349 347 348 345 343 340 341 341 341 343 351 350 350 348 348 347 344 344 343 344 345 345 346 347 346 350 349 351 351 350 350 352 353 352 352 354 352 351 351 348 349 350 350
345 345 345 342 342 342 342 342 343 344 344 344 343 344 344 342 343 343 343 346 351 350 351 348 349 349 349 348 347 348 349 350 352 353 352 352 353 354 353 353 351 352 352
339 338 340 340 339 339 339 341 342 348 345 343 342 343 342 342 342 341 340 340 340 344 347 346 344 343 343 344 346 346 350 349 349 351 352 352 353 352 354 352 353 353 352
336 336 337 338 338 338 338 339 340 341 342 340 336 336 337 337 336 333 329 328 325 325 325 330 338 343 345 346 346 347 348 348 346 345 349 349 348 348 348 350 351 351 350

GFSMA_850_thetae_117.txt.gz
Theta_e
342 343 343 339 341 343 342 341 342 342 342 344 340 341 341 338 337 325 329 334 336 335 336 339 341 342 343 343 344 344 344 344 344 345 344 343 344 345 345 345 345 345 347
344 346 342 341 341 340 341 343 344 343 339 342 344 340 340 342 340 337 335 334 335 337 338 340 342 342 343 343 344 344 344 343 342 344 345 343 343 345 346 346 347 347 347
341 342 345 343 339 339 340 343 345 345 343 339 344 343 341 342 341 343 343 338 337 337 340 341 343 343 343 343 344 346 346 344 341 340 345 346 344 344 345 346 345 345 346
346 345 342 341 341 346 345 345 346 343 343 344 344 344 342 337 344 344 344 345 346 340 341 341 342 344 345 345 345 345 345 345 342 341 342 345 345 345 344 345 346 343 339
345 346 346 342 339 345 345 347 345 344 342 343 344 343 343 345 343 343 344 344 346 348 343 345 348 349 348 350 348 348 346 343 340 340 340 344 345 346 346 344 336 330 328
347 348 344 339 341 342 344 343 344 344 345 344 345 344 344 345 343 342 341 341 342 345 344 349 350 350 351 351 351 349 346 341 340 338 342 343 347 346 341 331 335 336 329
346 345 341 340 341 342 342 341 341 346 344 346 345 345 344 345 344 344 345 344 343 346 343 345 342 343 346 351 352 350 347 346 343 342 339 345 346 345 339 330 331 340 340
345 343 341 336 343 341 340 340 345 349 345 344 348 346 344 345 346 345 345 346 344 346 345 348 346 347 351 352 352 352 348 349 344 342 339 337 343 344 336 330 329 333 337
345 348 346 340 340 338 343 344 347 349 343 345 346 347 348 348 345 345 345 343 345 346 347 348 347 348 351 352 353 351 350 346 342 340 336 332 335 339 329 330 328 329 335
344 345 345 343 345 338 340 345 348 349 350 344 340 343 345 345 347 347 344 345 344 346 347 345 347 348 350 351 350 349 346 343 338 335 336 332 332 328 328 330 328 328 334
346 348 344 343 332 344 344 342 348 344 348 349 346 350 347 345 342 344 347 345 342 346 347 349 350 349 350 352 348 346 346 338 333 344 336 341 331 328 327 327 327 329 330
345 348 349 342 341 345 343 349 345 343 346 347 347 346 346 347 344 341 338 338 339 341 343 343 348 346 344 347 348 347 340 335 340 345 343 343 338 335 335 334 334 330 330
346 344 348 344 342 344 347 344 348 344 343 342 345 347 347 345 341 343 343 340 338 342 342 338 342 346 348 350 346 339 336 331 347 347 345 344 341 341 343 345 343 332 330
347 350 349 346 344 343 346 344 343 344 343 344 343 346 342 346 349 349 346 347 346 345 346 345 346 349 350 344 341 343 340 346 348 347 348 342 342 344 345 346 342 333 334
348 350 349 347 346 345 347 343 343 341 347 347 345 339 342 346 344 349 348 346 347 348 347 349 348 346 343 343 341 347 347 347 348 347 346 343 343 344 346 346 346 346 344
350 347 345 346 345 346 349 346 344 348 348 346 346 344 340 342 341 347 348 346 345 343 343 343 343 345 342 342 344 346 348 348 345 346 344 346 346 345 346 347 347 347 347
347 342 346 349 349 349 348 348 347 346 350 346 344 346 348 348 346 343 343 343 343 343 342 339 343 343 344 346 347 350 350 348 348 346 344 348 350 350 347 348 349 347 348
345 339 348 352 351 346 343 343 344 345 350 348 346 342 345 343 346 347 342 341 345 346 349 346 343 344 348 350 349 349 346 345 349 348 346 347 348 348 347 350 347 348 349
345 343 345 345 346 346 346 347 348 342 346 348 347 345 348 348 348 347 348 342 346 346 345 346 341 347 349 352 348 346 343 339 341 341 342 342 345 350 353 352 349 349 349
347 347 348 348 348 347 347 348 348 347 345 343 346 349 346 345 347 347 345 348 344 345 343 341 346 346 343 344 343 341 339 341 341 342 342 346 351 351 351 351 350 350 350
344 343 348 348 346 347 347 346 347 345 345 343 348 348 347 346 347 347 346 343 339 338 338 339 339 340 342 343 345 346 345 343 342 346 344 348 350 351 351 351 350 350 350
347 344 347 346 347 347 345 344 345 343 343 338 342 339 345 346 344 344 341 339 342 342 343 345 346 345 346 347 344 343 344 345 348 347 346 349 349 349 350 346 348 350 349
346 346 346 346 348 346 345 343 343 344 343 341 344 341 341 341 343 342 342 343 342 344 346 346 346 344 340 342 345 345 345 347 347 346 343 342 346 346 345 340 350 350 351
346 344 345 347 344 345 343 340 340 343 342 341 340 341 342 340 342 342 342 341 340 341 343 342 340 342 344 346 346 345 346 346 346 343 341 331 329 328 329 345 349 342 345
346 345 340 336 337 341 341 341 341 340 341 342 342 342 342 342 341 340 338 334 329 326 327 337 338 338 341 341 340 340 339 338 338 334 328 325 328 327 326 337 341 334 334
341 338 336 334 331 333 338 341 340 340 342 341 338 337 337 335 332 329 326 325 323 322 331 335 340 335 336 335 333 331 328 329 327 325 324 324 326 329 326 331 320 318 316

GFSMA_850_thetae_123.txt.gz
Theta_e
340 341 340 340 340 338 340 341 343 343 341 341 339 338 338 336 324 329 334 334 335 338 340 341 342 343 344 345 345 345 343 341 341 341 344 344 344 343 344 343 343 343 343
339 338 339 342 342 341 341 342 342 342 342 342 340 339 339 337 332 334 334 336 338 339 340 342 343 344 345 345 345 345 342 341 341 343 342 344 343 344 344 343 340 336 334
340 340 341 341 340 341 342 342 343 341 343 342 341 339 338 340 339 337 339 337 339 340 342 343 344 345 346 346 347 347 342 341 342 343 343 344 345 343 340 332 330 337 334
338 339 342 339 340 341 342 344 342 341 339 343 342 341 337 339 341 343 344 344 340 340 344 347 347 348 349 349 349 348 344 343 344 341 342 343 343 345 341 330 329 331 340
339 340 339 342 342 343 344 345 343 342 342 343 343 342 341 338 339 341 343 344 341 341 342 345 346 349 350 350 350 350 345 344 344 342 343 342 339 340 339 329 329 330 333
343 343 341 341 337 343 344 344 345 343 343 343 343 343 342 344 343 340 340 342 344 344 345 345 345 347 346 348 350 351 348 343 342 341 340 336 336 337 329 331 330 329 331
340 338 343 338 340 342 343 344 345 344 344 346 345 343 343 343 344 344 344 344 343 343 344 344 345 346 347 349 349 351 348 343 342 338 337 334 329 329 330 330 330 331 332
342 340 339 337 339 342 341 344 346 345 343 345 344 344 344 344 344 344 345 345 345 344 344 345 345 345 347 348 349 349 347 343 339 340 342 340 337 339 340 341 335 331 333
343 341 343 338 340 342 340 343 346 343 343 345 345 346 344 345 346 345 345 345 344 344 343 346 345 346 346 347 350 346 343 345 340 342 344 342 341 343 344 339 333 330 334
342 344 344 339 338 340 340 342 346 343 344 343 345 344 345 344 346 345 343 344 344 342 342 344 345 348 347 343 345 344 343 336 342 346 345 342 342 344 344 339 336 333 334
341 339 343 341 340 339 342 341 346 346 346 342 342 344 344 344 343 338 342 344 343 341 341 341 338 341 344 343 342 345 343 346 347 349 348 342 343 344 345 345 344 344 338
344 345 343 340 341 337 340 342 344 345 344 346 346 343 343 346 341 341 340 340 339 340 344 343 339 346 346 343 344 345 345 348 349 349 347 343 343 343 343 345 345 346 346
344 345 345 344 338 339 343 341 340 341 342 345 347 345 345 345 346 344 343 345 340 341 345 345 343 346 346 345 342 346 345 347 349 347 344 346 343 344 347 347 348 348 347
344 344 345 345 343 341 344 343 344 340 340 340 342 345 344 345 346 345 345 345 346 346 345 345 345 345 345 344 343 344 345 347 347 344 344 345 347 346 348 348 347 349 347
344 344 344 346 346 343 343 346 343 343 343 340 339 341 341 343 344 344 347 346 344 344 345 341 342 343 343 343 346 344 347 349 347 346 346 347 344 342 342 345 347 347 348
346 347 348 346 347 346 344 343 345 342 342 345 344 344 343 340 341 342 340 345 345 343 344 343 346 345 343 348 348 348 348 348 347 346 345 342 348 348 346 347 348 348 349
345 347 347 346 346 343 344 347 344 344 343 345 346 344 344 346 346 345 344 344 345 345 343 344 343 345 342 343 348 348 347 345 343 340 340 344 349 350 350 348 349 349 350
344 345 347 343 343 344 344 345 346 346 343 345 347 343 343 345 345 343 345 344 344 345 346 344 344 343 342 341 346 345 340 340 341 341 344 350 351 350 349 349 349 349 349
342 345 345 347 343 345 347 346 347 346 344 344 346 345 342 343 343 345 346 346 343 344 344 344 342 341 339 342 340 339 341 341 343 346 347 348 349 348 349 349 349 349 349
343 345 345 342 345 347 347 348 344 343 347 343 346 345 344 345 349 347 347 345 343 344 341 341 336 338 339 340 341 341 340 341 344 344 346 344 341 344 345 347 348 349 349
345 345 345 345 345 346 345 344 343 345 345 347 343 342 342 346 344 344 343 345 344 339 339 340 340 342 342 342 341 340 342 343 344 344 342 333 335 340 343 345 345 347 347
345 345 344 344 345 345 344 343 344 345 345 340 343 343 343 345 344 344 344 342 340 340 341 341 342 343 341 339 343 343 343 342 342 340 340 333 333 344 343 342 333 335 337
345 344 345 345 343 342 343 344 343 344 345 345 345 344 342 341 339 343 343 341 341 341 341 341 342 340 339 343 343 343 340 336 335 335 334 327 321 325 338 340 336 324 315
342 344 344 345 346 345 341 343 343 343 343 343 343 342 340 339 340 341 341 342 340 340 339 338 337 338 341 341 340 337 335 332 328 326 322 316 315 317 324 328 320 315 313
341 341 343 344 345 345 340 343 342 343 343 343 342 340 340 340 341 341 340 339 337 335 332 332 336 339 338 337 336 333 332 329 319 316 317 313 313 311 316 321 319 310 308
341 343 342 344 344 344 343 339 339 339 338 339 338 341 340 338 336 333 328 327 325 326 330 333 336 336 337 336 332 330 328 320 313 315 313 310 309 308 308 312 305 305 305